Weather History for Leader, SK

Change the Weather History Date:

Wednesday, September 12, 2012

  Actual Average Record
Temperature  
Mean Temperature 48 °F -  
Max Temperature 64 °F - - ()
Min Temperature 33 °F - - ()
Degree Days  
Heating Degree Days 16    
Moisture  
Dew Point 23 °F    
Average Humidity 35    
Maximum Humidity 60    
Minimum Humidity 12    
Precipitation  
Precipitation 0.00 in - - ()
Sea Level Pressure  
Sea Level Pressure 30.22 in    
Wind  
Wind Speed 11 mph ()    
Max Wind Speed 18 mph    
Max Gust Speed 28 mph    
T = Trace of Precipitation, MM = Missing Value Source: Averaged Metar Reports

Daily Weather History Graph

Daily Weather History Graph

Search for Another Location

Airport:

Trip Planner

Search our weather history database for the weather conditions in past years. The results will help you decide how hot, cold, wet, or windy it might be!

Date:

Astronomy

Sep. 12, 2012 Rise Set
Actual Time 6:49 AM CST 7:37 PM CST
Civil Twilight 6:16 AM CST 8:10 PM CST
Nautical Twilight 5:36 AM CST 8:50 PM CST
Astronomical Twilight 4:53 AM CST 9:32 PM CST
Moon 2:50 AM CST (9/12) 5:42 PM CST (9/12)
Length of Visible Light 13h 54m
Length of Day
12h 47m
Waning Crescent, 13% of the Moon is Illuminated
Sep 12
Waning Crescent
Sep 15
New
Sep 22
First Quarter
Sep 29
Full
Oct 8
Last Quarter

Hourly Weather History & Observations

Time (CST) Temp. Windchill Dew Point Humidity Pressure Visibility Wind Dir Wind Speed Gust Speed Precip Events Conditions
12:00 AM 46 °F - 24 °F 28% 30.09 in - West 11.5 mph - -  
12:00 AM 45.7 °F 40.2 °F 23.5 °F 42% 30.09 in - West 11.5 mph - N/A   Unknown
1:00 AM 45.0 °F 39.7 °F 24.4 °F 45% 30.10 in - West 10.4 mph - N/A   Unknown
2:00 AM 43.9 °F 37.9 °F 24.4 °F 46% 30.13 in - West 11.5 mph - N/A   Unknown
3:00 AM 42.8 °F 36.6 °F 24.6 °F 49% 30.15 in - West 11.5 mph - N/A   Unknown
4:00 AM 42.6 °F 35.9 °F 25.3 °F 51% 30.16 in - West 12.7 mph - N/A   Unknown
5:00 AM 43.3 °F 36.5 °F 26.1 °F 51% 30.19 in - WNW 13.8 mph - N/A   Unknown
6:00 AM 42 °F - 26 °F 41% 30.21 in - WNW 12.7 mph - -  
6:00 AM 41.7 °F 34.8 °F 26.4 °F 55% 30.21 in - WNW 12.7 mph - N/A   Unknown
7:00 AM 38.7 °F 32.9 °F 25.7 °F 60% 30.25 in - West 8.1 mph - N/A   Unknown
8:00 AM 39.2 °F 32.0 °F 25.7 °F 58% 30.27 in - West 11.5 mph - N/A   Unknown
9:00 AM 47.8 °F - 26.1 °F 43% 30.29 in - West 13.8 mph - N/A   Unknown
10:00 AM 51.1 °F - 26.4 °F 38% 30.30 in - West 13.8 mph 20.7 mph N/A   Unknown
11:00 AM 54.9 °F - 26.2 °F 33% 30.29 in - West 12.7 mph 20.7 mph N/A   Unknown
12:00 PM 58 °F - 24 °F 16% 30.28 in - West 17.3 mph - -  
12:00 PM 58.3 °F - 24.1 °F 27% 30.28 in - West 17.3 mph 24.2 mph N/A   Unknown
1:00 PM 60.6 °F - 21.6 °F 22% 30.27 in - WNW 17.3 mph 26.5 mph N/A   Unknown
2:00 PM 60.8 °F - 20.8 °F 21% 30.27 in - WNW 18.4 mph 27.6 mph N/A   Unknown
3:00 PM 61.0 °F - 19.6 °F 20% 30.25 in - WNW 17.3 mph 26.5 mph N/A   Unknown
4:00 PM 61.9 °F - 20.8 °F 21% 30.25 in - West 16.1 mph - N/A   Unknown
5:00 PM 62.1 °F - 20.1 °F 20% 30.25 in - West 17.3 mph 25.3 mph N/A   Unknown
6:00 PM 59 °F - 20 °F 12% 30.24 in - West 10.4 mph - -  
6:00 PM 59.2 °F - 19.8 °F 22% 30.24 in - West 10.4 mph - N/A   Unknown
7:00 PM 59.7 °F - 18.0 °F 20% 30.23 in - West 12.7 mph - N/A   Unknown
8:00 PM 48.9 °F - 21.0 °F 33% 30.23 in - SW 8.1 mph - N/A   Unknown
9:00 PM 47.5 °F - 19.9 °F 34% 30.22 in - SSW 9.2 mph - N/A   Unknown
11:00 PM 51.4 °F - 22.1 °F 32% 30.19 in - South 9.2 mph - N/A   Unknown